星链-6061 (STARLINK-6061 )

导读 | 豆包AI

STARLINK-6061是美国SpaceX星链互联网卫星星座的一员,于2023年5月31日发射入轨。星链计划旨在构建全球卫星互联网星座,为全球偏远地区、海洋空域等提供低延迟高速互联网接入服务,该卫星加入后进一步拓展了星链星座的覆盖范围与服务能力,是星座部署推进过程中的组成单元。

基本信息
目录编号:
56795
目录名称:
STARLINK-6061
国际标识:
2023-078AE
轨道中心:
EARTH
卫星名称:
星链-6061
卫星全名:
星链-6061 (STARLINK-6061 )
卫星状态:
在轨 (已飞行1019 天)
发射日期:
2023-05-31 UTC
国别 :
美国 (US)
星等 :
--
轨道信息
数据来源 国际轨道数据
星历时间: 2026-03-15T08:00:02+0800
20小时前
查看轨道信息
半长轴: 6950.219km
偏心率: 0.0003077
轨道倾角: 70.002°
近地点辐角 271.775°
升交点赤经 310.896°
平近点角 71.700°
近地点: 569.943km
远地点: 574.221km
周期: 96.108分钟
每日圈数: 14.983217
详细信息
固有亮度:
5
最大亮度:
2.5
卫星平台:
Starlink v1.5
覆盖范围:
全球
运营商:
太空探索技术公司
运营商所在国:
美国
制造商(研发单位):
太空探索技术公司
制造商所在国:
美国
使用方式:
暂无
卫星简介
星链(Starlink)计划是由太空探索技术公司(SpaceX)提出的一个巨型低轨卫星互联网星座项目,计划在2019年至2024年间在太空搭建由约1.2万颗卫星组成的“星链”网络,其中1584颗将部署在地球上空550千米处的近地轨道,并从2020年开始工作。该卫星仍在工作。
2D轨道图
3D轨道图
轨道高度分析图
轨道倾角分析图
轨道综合分析图
查看轨道综合分析图